When you browse on this site, cookies collect data to enhance your experience and personalize the content and advertising you see.
Visit our Privacy Policy to learn more. By continuing to use the site, you agree to this use of cookies and data.
  • In Latvia
  • List of Countries
  • For 7 days
  • Water Temperature
  • Satellite Maps
  • Weather Map
  • Weather Widgets
  • user-avatar
    Login

    Hourly Weather Stuttgart

    Today, 26 April, Friday

    Time Temperature Precipitation Wind Pressure Humidity
    00:00 +10°C° 0 mm 2 mps 730 mmHg 88%
    01:00 +9°C° 0 mm 2 mps 731 mmHg 89%
    02:00 +8°C° 0 mm 2 mps 731 mmHg 89%
    03:00 +8°C° 0 mm 2 mps 731 mmHg 88%
    04:00 +8°C° 0 mm 2 mps 732 mmHg 88%
    05:00 +8°C° 0.1 mm 3 mps 732 mmHg 87%
    06:00 +8°C° 0.1 mm 3 mps 733 mmHg 86%
    07:00 +8°C° 0 mm 3 mps 733 mmHg 85%
    08:00 +8°C° 0.6 mm 3 mps 733 mmHg 86%
    09:00 +7°C° 0.6 mm 4 mps 734 mmHg 86%
    10:00 +7°C° 0.6 mm 4 mps 734 mmHg 87%
    11:00 +8°C° 0.6 mm 4 mps 735 mmHg 85%
    12:00 +8°C° 0.6 mm 4 mps 735 mmHg 84%
    13:00 +10°C° 0.6 mm 4 mps 736 mmHg 83%
    14:00 +10°C° 0.2 mm 4 mps 736 mmHg 80%
    15:00 +11°C° 0.2 mm 3 mps 736 mmHg 76%
    16:00 +12°C° 0.2 mm 3 mps 736 mmHg 73%
    17:00 +11°C° 0.1 mm 3 mps 736 mmHg 75%
    18:00 +12°C° 0.1 mm 2 mps 736 mmHg 76%
    19:00 +10°C° 0.1 mm 2 mps 737 mmHg 78%
    20:00 +9°C° 0 mm 2 mps 737 mmHg 80%
    21:00 +9°C° 0 mm 2 mps 737 mmHg 82%
    22:00 +8°C° 0 mm 2 mps 737 mmHg 84%
    23:00 +8°C° 0 mm 2 mps 737 mmHg 84%

    Tomorrow, 27 April, Saturday

    Time Temperature Precipitation Wind Pressure Humidity
    00:00 +7°C° 0 mm 2 mps 737 mmHg 84%
    01:00 +7°C° 0 mm 2 mps 738 mmHg 83%
    02:00 +7°C° 0 mm 2 mps 737 mmHg 84%
    03:00 +7°C° 0 mm 2 mps 737 mmHg 85%
    04:00 +6°C° 0 mm 2 mps 737 mmHg 86%
    05:00 +7°C° 0 mm 2 mps 737 mmHg 84%
    06:00 +8°C° 0 mm 3 mps 737 mmHg 82%
    07:00 +9°C° 0 mm 3 mps 738 mmHg 80%
    08:00 +10°C° 0.1 mm 4 mps 737 mmHg 77%
    09:00 +11°C° 0.1 mm 4 mps 737 mmHg 74%
    10:00 +13°C° 0.1 mm 5 mps 737 mmHg 70%
    11:00 +12°C° 0.4 mm 5 mps 737 mmHg 70%
    12:00 +12°C° 0.4 mm 5 mps 737 mmHg 70%
    13:00 +12°C° 0.4 mm 5 mps 736 mmHg 70%
    14:00 +12°C° 0.5 mm 5 mps 736 mmHg 72%
    15:00 +11°C° 0.5 mm 6 mps 736 mmHg 73%
    16:00 +11°C° 0.5 mm 6 mps 736 mmHg 75%
    17:00 +9°C° 0.4 mm 6 mps 737 mmHg 78%
    18:00 +8°C° 0.4 mm 5 mps 737 mmHg 82%
    19:00 +7°C° 0.4 mm 4 mps 737 mmHg 85%
    20:00 +6°C° 0.2 mm 4 mps 738 mmHg 85%
    21:00 +6°C° 0.2 mm 4 mps 738 mmHg 85%
    22:00 +5°C° 0.2 mm 4 mps 739 mmHg 85%
    23:00 +5°C° 0 mm 4 mps 739 mmHg 86%

    Day after tomorrow, 28 April, Sunday

    Time Temperature Precipitation Wind Pressure Humidity
    00:00 +4°C° 0 mm 3 mps 739 mmHg 86%
    01:00 +4°C° 0 mm 3 mps 739 mmHg 86%
    02:00 +4°C° 0.1 mm 3 mps 739 mmHg 87%
    03:00 +5°C° 0.1 mm 2 mps 739 mmHg 87%
    04:00 +5°C° 0.1 mm 2 mps 739 mmHg 87%
    05:00 +5°C° 0 mm 2 mps 739 mmHg 86%
    06:00 +5°C° 0 mm 3 mps 739 mmHg 85%
    07:00 +5°C° 0 mm 3 mps 739 mmHg 84%
    08:00 +7°C° 0.2 mm 3 mps 739 mmHg 80%
    09:00 +7°C° 0.2 mm 4 mps 739 mmHg 76%
    10:00 +7°C° 0.2 mm 4 mps 739 mmHg 72%
    11:00 +8°C° 0.4 mm 4 mps 739 mmHg 70%
    12:00 +8°C° 0.4 mm 4 mps 738 mmHg 68%
    13:00 +10°C° 0.4 mm 4 mps 738 mmHg 67%
    14:00 +8°C° 0.3 mm 4 mps 738 mmHg 67%
    15:00 +9°C° 0.3 mm 3 mps 738 mmHg 68%
    16:00 +9°C° 0.3 mm 3 mps 737 mmHg 69%
    17:00 +9°C° 0.2 mm 2 mps 738 mmHg 73%
    18:00 +8°C° 0.2 mm 2 mps 738 mmHg 77%
    19:00 +8°C° 0.2 mm 1 mps 738 mmHg 81%
    20:00 +7°C° 0 mm 1 mps 738 mmHg 83%
    21:00 +7°C° 0 mm 1 mps 738 mmHg 85%
    22:00 +6°C° 0 mm 1 mps 738 mmHg 88%
    23:00 +5°C° 0 mm 1 mps 738 mmHg 89%

    29 April, Monday

    Time Temperature Precipitation Wind Pressure Humidity
    00:00 +5°C° 0 mm 1 mps 738 mmHg 90%
    01:00 +4°C° 0 mm 1 mps 739 mmHg 90%
    02:00 +4°C° 0 mm 1 mps 739 mmHg 91%
    03:00 +4°C° 0 mm 1 mps 739 mmHg 91%
    04:00 +3°C° 0 mm 1 mps 739 mmHg 91%
    05:00 +4°C° 0 mm 1 mps 739 mmHg 89%
    06:00 +4°C° 0 mm 0 mps 739 mmHg 86%
    07:00 +5°C° 0 mm 0 mps 739 mmHg 83%
    08:00 +7°C° 0 mm 0 mps 740 mmHg 76%
    09:00 +10°C° 0 mm 1 mps 740 mmHg 68%
    10:00 +12°C° 0 mm 1 mps 740 mmHg 60%
    11:00 +13°C° 0 mm 1 mps 739 mmHg 56%
    12:00 +14°C° 0 mm 1 mps 739 mmHg 51%
    13:00 +15°C° 0 mm 2 mps 739 mmHg 47%
    14:00 +15°C° 0 mm 2 mps 739 mmHg 49%
    15:00 +14°C° 0 mm 3 mps 738 mmHg 51%
    16:00 +14°C° 0 mm 3 mps 738 mmHg 53%
    17:00 +13°C° 0 mm 3 mps 738 mmHg 58%
    18:00 +13°C° 0 mm 2 mps 738 mmHg 63%
    19:00 +12°C° 0 mm 2 mps 738 mmHg 69%
    20:00 +11°C° 0 mm 1 mps 738 mmHg 71%
    21:00 +10°C° 0 mm 1 mps 739 mmHg 74%
    22:00 +9°C° 0 mm 1 mps 739 mmHg 76%
    23:00 +8°C° 0 mm 1 mps 739 mmHg 79%

    30 April, Tuesday

    Time Temperature Precipitation Wind Pressure Humidity
    00:00 +8°C° 0 mm 1 mps 739 mmHg 82%
    01:00 +7°C° 0 mm 1 mps 739 mmHg 85%
    02:00 +7°C° 0 mm 1 mps 738 mmHg 86%
    03:00 +7°C° 0 mm 1 mps 738 mmHg 87%
    04:00 +7°C° 0 mm 1 mps 738 mmHg 88%
    05:00 +8°C° 0.1 mm 1 mps 738 mmHg 88%
    06:00 +7°C° 0.1 mm 2 mps 738 mmHg 88%
    07:00 +7°C° 0.1 mm 2 mps 738 mmHg 88%
    08:00 +8°C° 0.2 mm 2 mps 738 mmHg 89%
    09:00 +8°C° 0.2 mm 2 mps 738 mmHg 90%
    10:00 +8°C° 0.2 mm 2 mps 738 mmHg 91%
    11:00 +9°C° 0.1 mm 2 mps 738 mmHg 89%
    12:00 +10°C° 0.1 mm 2 mps 737 mmHg 86%
    13:00 +12°C° 0.1 mm 2 mps 737 mmHg 84%
    14:00 +13°C° 0 mm 2 mps 737 mmHg 80%
    15:00 +14°C° 0 mm 2 mps 737 mmHg 76%
    16:00 +15°C° 0 mm 2 mps 737 mmHg 72%
    17:00 +14°C° 0.1 mm 1 mps 737 mmHg 75%
    18:00 +13°C° 0.1 mm 1 mps 737 mmHg 78%
    19:00 +13°C° 0.1 mm 1 mps 737 mmHg 81%
    20:00 +11°C° 0 mm 1 mps 737 mmHg 83%
    21:00 +9°C° 0 mm 0 mps 738 mmHg 85%
    22:00 +8°C° 0 mm 0 mps 738 mmHg 87%
    23:00 +7°C° 0 mm 0 mps 738 mmHg 88%

    1 May, Wednesday

    Time Temperature Precipitation Wind Pressure Humidity
    00:00 +7°C° 0 mm 0 mps 738 mmHg 89%
    01:00 +6°C° 0 mm 0 mps 738 mmHg 90%
    02:00 +6°C° 0 mm 0 mps 737 mmHg 90%
    03:00 +6°C° 0 mm 0 mps 737 mmHg 90%
    04:00 +5°C° 0 mm 0 mps 737 mmHg 90%
    05:00 +6°C° 0 mm 0 mps 737 mmHg 88%
    06:00 +7°C° 0 mm 0 mps 737 mmHg 85%
    07:00 +8°C° 0 mm 0 mps 737 mmHg 83%
    08:00 +10°C° 0 mm 0 mps 737 mmHg 75%
    09:00 +13°C° 0 mm 1 mps 737 mmHg 67%
    10:00 +16°C° 0 mm 1 mps 737 mmHg 59%
    11:00 +16°C° 0 mm 1 mps 737 mmHg 55%
    12:00 +18°C° 0 mm 1 mps 737 mmHg 51%
    13:00 +19°C° 0 mm 1 mps 736 mmHg 47%
    14:00 +19°C° 0 mm 1 mps 736 mmHg 47%
    15:00 +20°C° 0 mm 1 mps 736 mmHg 46%
    16:00 +20°C° 0 mm 1 mps 736 mmHg 46%
    17:00 +18°C° 0 mm 1 mps 736 mmHg 51%
    18:00 +16°C° 0 mm 1 mps 735 mmHg 56%
    19:00 +15°C° 0 mm 1 mps 735 mmHg 62%
    20:00 +13°C° 0 mm 1 mps 735 mmHg 64%
    21:00 +12°C° 0 mm 1 mps 736 mmHg 66%
    22:00 +11°C° 0 mm 1 mps 736 mmHg 68%
    23:00 +10°C° 0 mm 1 mps 736 mmHg 70%
    Show more